DW0677 Weather Reports


time (UTC)temp
C
wind
direction
speed
KPH
gust
KPH
rain 1hr
cm
rain 24hr
cm
rain mn
cm
humidity
%
barometer
mb
20260505140351 11 297 0.0 0.0 0.00 0.00 0.00 90 1015.1
20260505124908 12 297 0.0 0.0 0.00 0.00 0.00 88 1014.8
20260505124347 12 297 0.0 3.2 0.00 0.00 0.00 88 1014.7
20260505123829 12 297 0.0 3.2 0.00 0.00 0.00 88 1014.7
20260505123348 12 297 0.0 3.2 0.00 0.00 0.00 88 1014.7
20260505122907 12 297 0.0 0.0 0.00 0.00 0.00 88 1014.7
20260505122325 12 297 0.0 1.6 0.00 0.00 0.00 88 1014.7
20260505121849 12 297 0.0 1.6 0.00 0.00 0.00 88 1014.7
20260505121328 12 297 0.0 0.0 0.00 0.00 0.00 88 1014.7
20260505120832 12 297 0.0 0.0 0.00 0.00 0.00 88 1014.7
20260505120337 12 297 0.0 0.0 0.00 0.00 0.00 88 1014.6
20260505115839 12 297 0.0 0.0 0.00 0.00 0.00 88 1014.6
20260505115342 12 297 0.0 0.0 0.00 0.00 0.00 88 1014.6
20260505114829 12 297 0.0 0.0 0.00 0.00 0.00 88 1014.6
20260505114343 12 297 0.0 0.0 0.00 0.00 0.00 88 1014.6
20260505113842 12 297 0.0 0.0 0.00 0.00 0.00 87 1014.6
20260505113342 12 297 0.0 0.0 0.00 0.00 0.00 87 1014.6
20260505112840 12 297 0.0 0.0 0.00 0.00 0.00 86 1014.5
20260505112344 12 297 0.0 0.0 0.00 0.00 0.00 85 1014.6
20260505111903 12 297 0.0 0.0 0.00 0.00 0.00 85 1014.5
20260505111402 12 297 0.0 0.0 0.00 0.00 0.00 85 1014.6
20260505110840 12 297 0.0 0.0 0.00 0.00 0.00 85 1014.5
20260505110341 12 297 0.0 0.0 0.00 0.00 0.00 85 1014.5
20260505101907 12 297 0.0 0.0 0.00 0.00 0.00 85 1014.1
20260505101327 12 297 0.0 0.0 0.00 0.00 0.00 85 1014.1
20260505100832 12 297 0.0 0.0 0.00 0.00 0.00 85 1014.1
20260505100334 12 297 0.0 1.6 0.00 0.00 0.00 85 1014.1
20260505095835 12 297 0.0 1.6 0.00 0.00 0.00 84 1014.1
20260505095334 12 297 0.0 3.2 0.00 0.00 0.00 84 1014.1
20260505094838 12 297 0.0 0.0 0.00 0.00 0.00 85 1014.1
20260505094338 12 297 0.0 3.2 0.00 0.00 0.00 84 1014.0
20260505093837 12 297 0.0 3.2 0.00 0.00 0.00 84 1014.0
20260505093345 12 297 0.0 3.2 0.00 0.00 0.00 84 1014.1
20260505092846 12 297 0.0 3.2 0.00 0.00 0.00 85 1014.0
20260505092346 12 297 0.0 0.0 0.00 0.00 0.00 85 1014.0
20260505091825 12 297 0.0 0.0 0.00 0.00 0.00 85 1013.9
20260505091328 12 297 0.0 0.0 0.00 0.00 0.00 85 1013.9
20260505090830 12 297 0.0 0.0 0.00 0.00 0.00 85 1013.8
20260505090335 12 297 0.0 0.0 0.00 0.00 0.00 85 1013.7
20260505085834 12 297 0.0 0.0 0.00 0.00 0.00 85 1013.7
20260505085338 12 297 0.0 3.2 0.00 0.00 0.00 85 1013.6
20260505084841 12 297 0.0 3.2 0.00 0.00 0.00 85 1013.7
20260505084341 12 297 0.0 3.2 0.00 0.00 0.00 85 1013.7
20260505083824 12 297 0.0 3.2 0.00 0.00 0.00 84 1013.6
20260505083347 12 297 0.0 3.2 0.00 0.00 0.00 84 1013.5
20260505082825 12 297 0.0 3.2 0.00 0.00 0.00 84 1013.5
20260505082347 12 297 0.0 3.2 0.00 0.00 0.00 84 1013.5
20260505081845 12 297 0.0 3.2 0.00 0.00 0.00 84 1013.5
20260505081344 12 297 0.0 3.2 0.00 0.00 0.00 84 1013.5
20260505080844 12 297 0.0 3.2 0.00 0.00 0.00 84 1013.5
20260505080405 12 297 0.0 3.2 0.00 0.00 0.00 84 1013.5
20260505075825 12 297 0.0 1.6 0.00 0.00 0.00 84 1013.5
20260505075328 12 297 0.0 3.2 0.00 0.00 0.00 84 1013.5
20260505074831 12 297 0.0 3.2 0.00 0.00 0.00 84 1013.4
20260505074338 12 297 0.0 3.2 0.00 0.00 0.00 84 1013.4
20260505073842 12 297 0.0 3.2 0.00 0.00 0.00 83 1013.3
20260505073341 12 297 0.0 3.2 0.00 0.00 0.00 84 1013.2
20260505072839 12 297 0.0 3.2 0.00 0.00 0.00 84 1013.1
20260505072338 12 297 0.0 3.2 0.00 0.00 0.00 84 1013.0
20260505071837 12 297 0.0 1.6 0.00 0.00 0.00 83 1013.0
20260505071336 12 297 0.0 1.6 0.00 0.00 0.00 82 1012.9
20260505070836 12 297 0.0 3.2 0.00 0.00 0.00 82 1012.9
20260505070356 12 297 0.0 3.2 0.00 0.00 0.00 82 1012.8
20260505065847 12 297 0.0 3.2 0.00 0.00 0.00 82 1012.8
20260505065406 12 297 0.0 3.2 0.00 0.00 0.00 82 1012.7
20260505064827 12 297 0.0 3.2 0.00 0.00 0.00 81 1012.7
20260505064334 12 297 0.0 3.2 0.00 0.00 0.00 81 1012.5
20260505063900 13 288 0.0 3.2 0.00 0.00 0.00 81 1012.6
20260505063342 13 288 0.0 3.2 0.00 0.00 0.00 80 1012.5
20260505062842 13 288 0.0 3.2 0.00 0.00 0.00 80 1012.4
20260505062406 13 287 0.0 3.2 0.00 0.00 0.00 80 1012.4
20260505061904 13 287 0.0 3.2 0.00 0.00 0.00 78 1012.3
20260505061343 13 287 0.0 3.2 0.00 0.00 0.00 78 1012.1
20260505060828 13 286 0.0 3.2 0.00 0.00 0.00 78 1012.1
20260505060329 13 280 0.0 3.2 0.00 0.00 0.00 77 1012.0
20260505055849 14 280 1.6 3.2 0.00 0.00 0.00 77 1012.0
20260505055333 14 280 0.0 3.2 0.00 0.00 0.00 76 1012.0
20260505054857 14 275 1.6 3.2 0.00 0.00 0.00 76 1011.9
20260505054337 15 295 0.0 3.2 0.00 0.00 0.00 75 1011.9
20260505053857 15 324 0.0 3.2 0.00 0.00 0.00 75 1011.9
20260505053337 15 324 0.0 3.2 0.00 0.00 0.00 75 1011.8
20260505052836 15 324 0.0 3.2 0.00 0.00 0.00 75 1011.8
20260505052337 15 324 0.0 3.2 0.00 0.00 0.00 74 1011.8
20260505051840 15 324 0.0 3.2 0.00 0.00 0.00 74 1011.8
20260505051342 15 324 0.0 3.2 0.00 0.00 0.00 72 1011.7
20260505050825 16 324 0.0 3.2 0.00 0.00 0.00 72 1011.7
20260505050334 16 324 0.0 3.2 0.00 0.00 0.00 72 1011.7
20260505041347 17 324 0.0 3.2 0.00 0.00 0.00 68 1011.0
20260505040847 17 324 1.6 3.2 0.00 0.00 0.00 68 1010.9
20260505040330 17 329 0.0 3.2 0.00 0.00 0.00 67 1010.8
20260505035832 17 329 0.0 3.2 0.00 0.00 0.00 67 1010.7
20260505035336 17 329 0.0 3.2 0.00 0.00 0.00 67 1010.6
20260505034836 17 330 0.0 3.2 0.00 0.00 0.00 67 1010.6
20260505034340 18 329 0.0 3.2 0.00 0.00 0.00 67 1010.5
20260505033841 18 329 1.6 3.2 0.00 0.00 0.00 67 1010.4
20260505033404 18 329 0.0 3.2 0.00 0.00 0.00 66 1010.4
20260505032846 18 329 0.0 3.2 0.00 0.00 0.00 65 1010.3
20260505032328 18 329 0.0 6.4 0.00 0.00 0.00 64 1010.2
20260505031831 19 333 0.0 3.2 0.00 0.00 0.00 63 1010.1
20260505031331 20 307 0.0 3.2 0.00 0.00 0.00 63 1010.0
20260505030835 20 295 0.0 4.8 0.00 0.00 0.00 68 1009.9
20260505030336 21 272 1.6 4.8 0.00 0.00 0.00 65 1009.7
20260505025834 21 200 0.0 3.2 0.00 0.00 0.00 65 1009.6
20260505025335 21 177 1.6 3.2 0.00 0.00 0.00 65 1009.5
20260505024854 21 178 0.0 3.2 0.00 0.00 0.00 64 1009.5
20260505024340 21 224 1.6 6.4 0.00 0.00 0.00 63 1009.5
20260505023839 21 141 1.6 6.4 0.00 0.00 0.00 62 1009.4
20260505023400 21 182 1.6 8.0 0.00 0.00 0.00 63 1009.4
20260505022839 21 170 1.6 3.2 0.00 0.00 0.00 63 1009.4
20260505022347 21 215 0.0 3.2 0.00 0.00 0.00 63 1009.4
20260505021846 21 232 1.6 6.4 0.00 0.00 0.00 62 1009.4
20260505021347 21 170 1.6 6.4 0.00 0.00 0.00 62 1009.4
20260505020847 22 168 3.2 8.0 0.00 0.00 0.00 61 1009.4
20260505020347 22 169 3.2 11.3 0.00 0.00 0.00 61 1009.4
20260505015845 22 164 3.2 11.3 0.00 0.00 0.00 60 1009.4
20260505015345 22 193 3.2 8.0 0.00 0.00 0.00 61 1009.5
20260505014845 22 176 1.6 6.4 0.00 0.00 0.00 60 1009.4
20260505014327 22 174 3.2 9.7 0.00 0.00 0.00 59 1009.4
20260505013831 22 224 3.2 6.4 0.00 0.00 0.00 59 1009.5
20260505013337 22 250 1.6 4.8 0.00 0.00 0.00 58 1009.5
20260505012837 22 224 3.2 8.0 0.00 0.00 0.00 58 1009.6
20260505012341 22 176 1.6 6.4 0.00 0.00 0.00 59 1009.6
20260505011824 22 264 3.2 6.4 0.00 0.00 0.00 59 1009.6
20260505011350 22 261 1.6 3.2 0.00 0.00 0.00 59 1009.6
20260505010829 22 253 1.6 9.7 0.00 0.00 0.00 57 1009.7
20260505010330 22 178 4.8 9.7 0.00 0.00 0.00 58 1009.7
20260505005829 22 184 1.6 4.8 0.00 0.00 0.00 59 1009.7
20260505005330 22 288 0.0 3.2 0.00 0.00 0.00 61 1009.8
20260505004829 22 294 3.2 6.4 0.00 0.00 0.00 58 1009.7
20260505004335 22 230 3.2 8.0 0.00 0.00 0.00 56 1009.8
20260505003836 22 176 1.6 3.2 0.00 0.00 0.00 56 1009.8
20260505003338 22 207 0.0 4.8 0.00 0.00 0.00 57 1009.9
20260505002857 22 135 1.6 4.8 0.00 0.00 0.00 56 1010.0
20260505002339 22 168 1.6 6.4 0.00 0.00 0.00 56 1009.9
20260505001838 22 172 3.2 6.4 0.00 0.00 0.00 56 1009.9
20260505001336 22 261 1.6 4.8 0.00 0.00 0.00 56 1010.0
20260505000836 22 249 1.6 8.0 0.00 0.00 0.00 57 1010.0
20260505000341 22 168 1.6 8.0 0.00 0.00 0.00 56 1010.0
20260504235839 22 203 3.2 6.4 0.00 0.00 0.00 56 1010.1
20260504235339 22 251 1.6 9.7 0.00 0.00 0.00 57 1010.1
20260504234828 21 155 4.8 9.7 0.00 0.00 0.00 57 1010.2
20260504234330 21 174 3.2 9.7 0.00 0.00 0.00 57 1010.2
20260504233830 21 158 1.6 4.8 0.00 0.00 0.00 57 1010.2
20260504233332 21 191 1.6 4.8 0.00 0.00 0.00 57 1010.2
20260504232835 21 195 1.6 6.4 0.00 0.00 0.00 57 1010.2
20260504232342 21 192 3.2 6.4 0.00 0.00 0.00 56 1010.3
20260504231823 21 259 1.6 6.4 0.00 0.00 0.00 57 1010.3
20260504231330 21 153 3.2 6.4 0.00 0.00 0.00 57 1010.3
20260504230848 21 110 1.6 6.4 0.00 0.00 0.00 57 1010.3
20260504230334 21 259 3.2 9.7 0.00 0.00 0.00 58 1010.4
20260504225856 21 106 4.8 9.7 0.00 0.00 0.00 59 1010.5
20260504225334 21 178 4.8 11.3 0.00 0.00 0.00 57 1010.6
20260504224855 21 205 3.2 8.0 0.00 0.00 0.00 59 1010.6
20260504224337 21 95 3.2 11.3 0.00 0.00 0.00 61 1010.6
20260504223837 21 169 4.8 11.3 0.00 0.00 0.00 58 1010.8
20260504223339 21 183 1.6 6.4 0.00 0.00 0.00 60 1010.8
20260504222837 20 190 1.6 6.4 0.00 0.00 0.00 59 1010.9
20260504222336 20 280 0.0 6.4 0.00 0.00 0.00 61 1011.0
20260504221856 20 276 1.6 6.4 0.00 0.00 0.00 58 1011.1
20260504221339 21 215 1.6 6.4 0.00 0.00 0.00 57 1011.2
20260504220839 20 182 3.2 6.4 0.00 0.00 0.00 59 1011.2
20260504220340 20 280 1.6 6.4 0.00 0.00 0.00 59 1011.2
20260504215839 20 263 1.6 6.4 0.00 0.00 0.00 58 1011.2
20260504215338 21 251 3.2 6.4 0.00 0.00 0.00 57 1011.3
20260504214859 20 277 1.6 4.8 0.00 0.00 0.00 58 1011.3
20260504214358 20 261 0.0 6.4 0.00 0.00 0.00 58 1011.4
20260504213856 21 149 3.2 6.4 0.00 0.00 0.00 57 1011.5
20260504213356 21 168 3.2 6.4 0.00 0.00 0.00 58 1011.5
20260504212838 21 195 1.6 6.4 0.00 0.00 0.00 60 1011.6
20260504212401 21 264 1.6 4.8 0.00 0.00 0.00 56 1011.6
20260504211824 21 200 3.2 8.0 0.00 0.00 0.00 56 1011.7
20260504211332 21 252 4.8 8.0 0.00 0.00 0.00 58 1011.8
20260504210837 21 174 3.2 4.8 0.00 0.00 0.00 59 1011.8
20260504210337 20 259 1.6 9.7 0.00 0.00 0.00 58 1011.9
20260504205833 20 194 3.2 12.9 0.00 0.00 0.00 59 1012.0
20260504205341 20 160 3.2 12.9 0.00 0.00 0.00 59 1012.1
20260504204845 20 189 1.6 9.7 0.00 0.00 0.00 60 1012.1
20260504204324 20 149 3.2 8.0 0.00 0.00 0.00 62 1012.2
20260504203851 20 149 4.8 9.7 0.00 0.00 0.00 62 1012.3
20260504203334 20 275 3.2 9.7 0.00 0.00 0.00 60 1012.4
20260504202836 20 130 4.8 9.7 0.00 0.00 0.00 61 1012.5
20260504202338 20 187 3.2 8.0 0.00 0.00 0.00 61 1012.5
20260504201842 20 147 3.2 8.0 0.00 0.00 0.00 62 1012.6
20260504201325 19 194 4.8 12.9 0.00 0.00 0.00 62 1012.6
20260504200836 18 143 4.8 12.9 0.00 0.00 0.00 61 1012.6
20260504200338 19 313 1.6 8.0 0.00 0.00 0.00 60 1012.7
20260504195838 19 155 3.2 6.4 0.00 0.00 0.00 64 1012.7
20260504195338 19 164 3.2 9.7 0.00 0.00 0.00 62 1012.8
20260504194838 19 185 4.8 9.7 0.00 0.00 0.00 64 1012.8
20260504194346 18 134 3.2 8.0 0.00 0.00 0.00 64 1012.8
20260504193846 18 163 3.2 8.0 0.00 0.00 0.00 64 1012.9
20260504193347 18 144 1.6 8.0 0.00 0.00 0.00 64 1012.8
20260504192825 19 218 3.2 8.0 0.00 0.00 0.00 65 1012.9
20260504192351 18 199 1.6 8.0 0.00 0.00 0.00 66 1012.9
20260504191848 18 164 4.8 8.0 0.00 0.00 0.00 67 1013.0
20260504191347 17 161 3.2 8.0 0.00 0.00 0.00 66 1013.0
20260504190846 17 260 3.2 8.0 0.00 0.00 0.00 68 1013.0
20260504190328 17 171 3.2 8.0 0.00 0.00 0.00 69 1013.1
20260504185835 17 138 3.2 14.5 0.00 0.00 0.00 71 1013.2
20260504185354 17 131 6.4 14.5 0.00 0.00 0.00 67 1013.3
20260504184853 17 158 3.2 8.0 0.00 0.00 0.00 68 1013.2
20260504184331 16 172 3.2 8.0 0.00 0.00 0.00 70 1013.3
20260504183838 16 175 1.6 6.4 0.00 0.00 0.00 72 1013.4
20260504183339 15 214 3.2 6.4 0.00 0.00 0.00 73 1013.4
20260504182841 15 176 1.6 4.8 0.00 0.00 0.00 75 1013.3
20260504182343 15 247 3.2 6.4 0.00 0.00 0.00 74 1013.2
20260504181847 15 172 1.6 8.0 0.00 0.00 0.00 75 1013.3
20260504181347 15 143 3.2 8.0 0.00 0.00 0.00 75 1013.2
20260504180906 15 237 3.2 4.8 0.00 0.00 0.00 75 1013.4
20260504180345 15 266 1.6 3.2 0.00 0.00 0.00 75 1013.3
20260504175843 15 228 1.6 4.8 0.00 0.00 0.00 76 1013.3
20260504175344 14 147 1.6 8.0 0.00 0.00 0.00 77 1013.2
20260504174848 14 150 4.8 8.0 0.00 0.00 0.00 76 1013.3
20260504174332 14 197 1.6 8.0 0.00 0.00 0.00 77 1013.3
20260504173834 14 195 4.8 8.0 0.00 0.00 0.00 76 1013.3
20260504173326 14 157 4.8 14.5 0.00 0.00 0.00 77 1013.3
20260504172849 14 183 3.2 14.5 0.00 0.00 0.00 77 1013.4
20260504172328 14 177 3.2 8.0 0.00 0.00 0.00 77 1013.3
20260504171829 14 174 3.2 6.4 0.00 0.00 0.00 76 1013.3
20260504171329 14 249 3.2 6.4 0.00 0.00 0.00 75 1013.2
20260504170829 14 154 1.6 8.0 0.00 0.00 0.00 77 1013.2
20260504170338 14 177 4.8 8.0 0.00 0.00 0.00 76 1013.2
20260504160344 13 168 4.8 11.3 0.00 0.00 0.00 78 1013.1
20260504150831 13 66 1.6 8.0 0.00 0.00 0.00 77 1012.6
20260504150334 13 160 3.2 8.0 0.00 0.00 0.00 78 1012.5